DW1253 Weather Reports


time (UTC)temp
F
wind
direction
speed
knots
gust
knots
rain 1hr
in
rain 24hr
in
rain mn
in
humidity
%
barometer
mb
20260831103852 64 213 0.9 3.5 0.00 0.25 0.06 95 1018.5
20260831103406 64 274 0.0 4.3 0.00 0.25 0.06 95 1018.4
20260831102841 64 138 0.9 4.3 0.00 0.25 0.06 95 1018.2
20260831102335 64 207 0.9 3.5 0.00 0.25 0.06 95 1018.3
20260831101851 63 251 0.0 1.7 0.00 0.25 0.06 95 1018.2
20260831101344 64 251 0.0 2.6 0.00 0.25 0.06 95 1018.5
20260831100840 64 206 0.9 2.6 0.00 0.25 0.06 95 1018.5
20260831100355 64 214 0.0 2.6 0.00 0.25 0.06 95 1018.5
20260831095859 63 214 0.0 2.6 0.00 0.25 0.06 95 1018.5
20260831095353 63 176 0.0 1.7 0.00 0.25 0.06 95 1018.4
20260831094846 63 176 0.0 1.7 0.00 0.25 0.06 95 1018.4
20260831094401 63 138 0.0 0.9 0.00 0.25 0.06 95 1018.3
20260831093854 63 138 0.0 0.9 0.00 0.25 0.06 95 1018.4
20260831093348 63 138 0.0 3.5 0.00 0.25 0.06 94 1018.5
20260831092902 63 138 0.0 3.5 0.00 0.25 0.06 94 1018.6
20260831092335 63 149 0.9 1.7 0.00 0.25 0.06 94 1018.5
20260831091849 63 119 0.0 1.7 0.00 0.25 0.06 94 1018.5
20260831091344 64 151 0.0 1.7 0.00 0.25 0.06 94 1018.4
20260831090837 64 151 0.0 1.7 0.01 0.25 0.06 94 1018.5
20260831090333 64 151 0.9 6.1 0.01 0.25 0.06 94 1018.3
20260831085841 64 153 0.9 6.1 0.01 0.25 0.06 94 1018.4
20260831085335 64 184 1.7 3.5 0.01 0.25 0.06 94 1018.7
20260831084834 64 180 0.0 1.7 0.01 0.25 0.06 94 1018.7
20260831084348 64 137 0.0 2.6 0.02 0.25 0.06 94 1018.7
20260831083843 64 218 0.0 2.6 0.02 0.25 0.06 94 1018.8
20260831083337 64 163 0.0 1.7 0.02 0.25 0.06 94 1018.8
20260831082851 64 163 0.0 1.7 0.02 0.25 0.06 94 1018.7
20260831082345 64 163 0.9 1.7 0.02 0.25 0.06 94 1018.8
20260831081901 64 165 0.0 1.7 0.02 0.25 0.06 94 1018.8
20260831081334 64 165 0.0 1.7 0.02 0.25 0.06 94 1018.8
20260831080848 64 165 0.9 1.7 0.02 0.24 0.05 94 1018.8
20260831080344 64 218 0.0 2.6 0.03 0.24 0.05 94 1018.8
20260831075850 64 232 0.0 3.5 0.03 0.24 0.05 94 1018.8
20260831075345 64 215 0.9 4.3 0.03 0.24 0.05 94 1019.0
20260831074859 64 258 1.7 5.2 0.03 0.24 0.05 94 1019.1
20260831074333 64 229 2.6 7.0 0.02 0.23 0.04 94 1019.1
20260831073847 64 209 2.6 8.7 0.02 0.23 0.04 94 1019.0
20260831073341 64 238 3.5 8.7 0.02 0.23 0.04 94 1019.2
20260831072836 64 215 1.7 6.1 0.02 0.23 0.04 94 1019.3
20260831072350 64 231 1.7 6.1 0.02 0.23 0.04 94 1019.3
20260831071841 64 223 0.9 2.6 0.03 0.23 0.04 94 1019.3
20260831071336 64 186 0.0 1.7 0.03 0.23 0.04 94 1019.3
20260831070850 64 244 0.0 1.7 0.02 0.22 0.03 94 1019.4
20260831070332 64 244 0.0 2.6 0.01 0.21 0.02 94 1019.3
20260831065839 64 244 0.0 2.6 0.01 0.21 0.02 94 1019.3
20260831065407 64 239 0.0 3.5 0.01 0.21 0.02 94 1019.3
20260831064843 64 240 1.7 3.5 0.01 0.21 0.02 94 1019.4
20260831064337 64 221 0.9 3.5 0.01 0.21 0.02 94 1019.4
20260831063833 64 221 0.0 0.0 0.01 0.21 0.02 94 1019.4
20260831063348 64 221 0.0 0.0 0.01 0.21 0.02 94 1019.3
20260831062841 64 221 0.0 0.9 0.01 0.21 0.02 94 1019.3
20260831062336 64 221 0.0 1.7 0.00 0.20 0.01 94 1019.3
20260831061850 64 221 0.9 2.6 0.00 0.20 0.01 94 1019.4
20260831061405 64 221 0.9 3.5 0.00 0.20 0.01 94 1019.4
20260831060837 64 229 0.0 3.5 0.00 0.20 0.01 94 1019.5
20260831060333 64 236 0.9 3.5 0.00 0.20 0.01 94 1019.5
20260831055840 64 234 0.9 1.7 0.00 0.20 0.01 94 1019.5
20260831055333 64 234 0.0 2.6 0.00 0.20 0.01 94 1019.4
20260831054848 64 234 0.0 2.6 0.00 0.20 0.01 94 1019.5
20260831054341 65 226 0.9 4.3 0.00 0.20 0.01 94 1019.6
20260831053837 64 226 0.9 4.3 0.00 0.20 0.01 94 1019.6
20260831053351 64 217 0.9 3.5 0.00 0.20 0.01 94 1019.6
20260831052846 64 217 1.7 4.3 0.00 0.20 0.01 94 1019.6
20260831052340 64 221 1.7 4.3 0.00 0.20 0.01 94 1019.6
20260831051835 64 222 1.7 3.5 0.00 0.20 0.01 94 1019.7
20260831051348 64 223 2.6 4.3 0.00 0.20 0.01 94 1019.6
20260831050847 64 219 1.7 5.2 0.00 0.20 0.01 94 1019.6
20260831050402 64 221 1.7 4.3 0.00 0.20 0.01 94 1019.6
20260831045849 64 246 0.9 2.6 0.01 0.20 0.01 94 1019.6
20260831045344 64 199 0.9 2.6 0.01 0.20 0.01 94 1019.7
20260831044839 64 236 0.9 2.6 0.01 0.20 0.01 94 1019.6
20260831044333 64 223 0.0 2.6 0.01 0.20 0.01 94 1019.7
20260831043908 64 223 0.9 2.6 0.01 0.20 0.01 93 1019.6
20260831043342 64 238 0.0 2.6 0.02 0.20 0.01 93 1019.6
20260831042836 64 193 0.0 2.6 0.02 0.20 0.01 93 1019.7
20260831042350 64 150 0.9 2.6 0.03 0.20 0.01 93 1019.7
20260831041845 64 218 0.9 2.6 0.03 0.20 0.01 93 1019.7
20260831041339 64 142 0.0 1.7 0.03 0.20 0.01 93 1019.6
20260831040854 64 208 0.9 1.7 0.04 0.20 0.01 93 1019.5
20260831040409 64 207 0.0 1.7 0.04 0.20 0.01 93 1019.5
20260831035834 64 207 0.9 1.7 0.03 0.19 0.19 93 1019.5
20260831035349 64 206 0.0 1.7 0.03 0.19 0.19 93 1019.6
20260831034844 64 206 0.9 1.7 0.04 0.19 0.19 93 1019.7
20260831034337 64 205 0.0 1.7 0.04 0.19 0.19 93 1019.7
20260831033852 64 205 0.0 1.7 0.04 0.19 0.19 93 1019.7
20260831033347 64 205 0.0 1.7 0.04 0.18 0.18 93 1019.6
20260831032904 64 205 0.0 2.6 0.05 0.18 0.18 93 1019.7
20260831032336 64 205 0.9 3.5 0.05 0.17 0.17 93 1019.9
20260831031850 64 237 0.9 3.5 0.06 0.17 0.17 93 1019.7
20260831031405 64 211 0.0 2.6 0.06 0.17 0.17 93 1019.9
20260831030840 64 211 0.9 2.6 0.06 0.16 0.16 93 1019.9
20260831030334 64 211 0.9 1.7 0.07 0.16 0.16 92 1019.8
20260831025902 64 211 0.9 2.6 0.09 0.16 0.16 92 1019.9
20260831025334 64 211 0.9 4.3 0.10 0.16 0.16 92 1019.8
20260831024834 64 213 1.7 4.3 0.10 0.15 0.15 92 1019.7
20260831024347 64 214 1.7 2.6 0.10 0.15 0.15 92 1019.7
20260831023900 64 205 0.9 2.6 0.10 0.15 0.15 92 1019.8
20260831023334 64 205 0.9 3.5 0.09 0.14 0.14 92 1019.8
20260831022847 64 236 1.7 3.5 0.08 0.13 0.13 92 1019.9
20260831022341 64 223 0.9 3.5 0.07 0.12 0.12 92 1020.1
20260831021853 65 223 0.9 3.5 0.06 0.11 0.11 92 1020.0
20260831021347 65 225 1.7 3.5 0.07 0.11 0.11 92 1020.1
20260831020842 65 217 1.7 4.3 0.06 0.10 0.10 92 1020.1
20260831020338 65 224 1.7 5.2 0.05 0.09 0.09 92 1020.1
20260831015847 65 236 1.7 5.2 0.03 0.07 0.07 92 1020.1
20260831015342 65 230 1.7 3.5 0.02 0.06 0.06 92 1020.1
20260831014857 65 228 0.9 3.5 0.01 0.05 0.05 92 1020.0
20260831014409 65 227 0.9 4.3 0.01 0.05 0.05 92 1020.1
20260831013902 65 236 1.7 4.3 0.01 0.05 0.05 92 1020.0
20260831013335 65 207 0.9 4.3 0.01 0.05 0.05 91 1020.1
20260831012850 65 211 1.7 4.3 0.01 0.05 0.05 91 1020.0
20260831012404 65 217 1.7 2.6 0.01 0.05 0.05 91 1019.9
20260831011838 65 239 1.7 3.5 0.01 0.05 0.05 91 1019.9
20260831011351 65 208 1.7 3.5 0.00 0.04 0.04 91 1019.9
20260831010847 65 215 0.9 2.6 0.01 0.04 0.04 90 1019.9
20260831010342 65 194 0.9 3.5 0.01 0.04 0.04 90 1019.7
20260831005848 65 192 0.9 3.5 0.01 0.04 0.04 91 1019.7
20260831005343 65 215 0.0 2.6 0.01 0.04 0.04 91 1019.6
20260831004836 65 215 0.9 2.6 0.01 0.04 0.04 90 1019.5
20260831004351 65 215 0.9 2.6 0.01 0.04 0.04 90 1019.6
20260831003844 65 215 0.9 2.6 0.01 0.04 0.04 90 1019.5
20260831003339 65 226 0.9 2.6 0.01 0.04 0.04 90 1019.4
20260831002837 65 226 0.9 2.6 0.01 0.04 0.04 90 1019.4
20260831002351 65 227 1.7 3.5 0.01 0.04 0.04 90 1019.3
20260831001847 65 244 0.9 3.5 0.01 0.04 0.04 90 1019.2
20260831001341 65 237 0.9 2.6 0.01 0.04 0.04 90 1019.1
20260831000856 65 248 0.9 3.5 0.01 0.03 0.03 89 1019.0
20260831000410 65 254 0.9 3.5 0.01 0.03 0.03 89 1019.0
20260830235835 65 161 0.9 1.7 0.01 0.03 0.03 89 1019.0
20260830235350 65 146 0.0 0.9 0.01 0.03 0.03 90 1019.0
20260830234845 65 146 0.0 0.9 0.01 0.03 0.03 90 1018.9
20260830234357 65 146 0.0 0.9 0.01 0.03 0.03 89 1019.0
20260830233852 65 146 0.0 0.9 0.02 0.03 0.03 89 1018.9
20260830233347 66 146 0.0 0.9 0.02 0.03 0.03 89 1018.8
20260830232840 66 146 0.0 0.9 0.02 0.03 0.03 89 1018.8
20260830232335 66 146 0.0 0.9 0.02 0.03 0.03 89 1018.8
20260830231909 66 146 0.0 0.9 0.02 0.03 0.03 89 1018.8
20260830231343 66 146 0.0 1.7 0.02 0.03 0.03 89 1018.8
20260830230836 66 146 0.0 1.7 0.01 0.02 0.02 89 1018.8
20260830230331 66 146 0.0 0.9 0.01 0.02 0.02 89 1018.8
20260830225836 66 146 0.0 1.7 0.01 0.02 0.02 89 1018.8
20260830225351 66 146 0.0 1.7 0.01 0.02 0.02 89 1018.9
20260830224844 66 146 0.0 0.9 0.01 0.02 0.02 89 1018.8
20260830224339 66 146 0.0 0.0 0.01 0.02 0.02 88 1018.9
20260830223835 66 146 0.0 0.9 0.00 0.01 0.01 88 1018.9
20260830223350 66 146 0.0 0.9 0.00 0.01 0.01 88 1019.0
20260830222843 66 146 0.0 0.9 0.00 0.01 0.01 88 1019.0
20260830222342 66 146 0.0 0.9 0.00 0.01 0.01 88 1019.1
20260830221836 66 146 0.0 0.0 0.00 0.01 0.01 88 1019.1
20260830221351 66 146 0.0 0.9 0.00 0.01 0.01 88 1019.0
20260830220906 66 146 0.0 1.7 0.00 0.01 0.01 88 1019.0
20260830220340 67 146 0.0 1.7 0.00 0.01 0.01 88 1019.0
20260830215847 67 146 0.0 0.0 0.00 0.01 0.01 88 1019.0
20260830215340 67 146 0.0 0.0 0.00 0.01 0.01 88 1019.0
20260830214835 67 146 0.0 1.7 0.00 0.01 0.01 88 1019.0
20260830214349 67 146 0.9 1.7 0.00 0.01 0.01 88 1019.0
20260830213844 67 146 0.9 2.6 0.00 0.01 0.01 88 1018.9
20260830213339 67 146 0.9 2.6 0.00 0.01 0.01 87 1018.9
20260830212834 67 146 0.0 1.7 0.00 0.01 0.01 86 1018.9
20260830212349 67 146 0.0 0.9 0.00 0.01 0.01 86 1018.9
20260830211903 67 146 0.0 0.9 0.00 0.01 0.01 86 1018.9
20260830211335 67 146 0.0 0.9 0.00 0.01 0.01 86 1019.0
20260830210850 67 146 0.0 0.9 0.00 0.01 0.01 86 1019.1
20260830210345 67 146 0.0 0.9 0.00 0.01 0.01 86 1019.0
20260830205851 67 146 0.0 0.9 0.00 0.01 0.01 85 1019.1
20260830205346 68 146 0.0 0.0 0.00 0.01 0.01 85 1019.0
20260830204839 68 146 0.0 0.9 0.00 0.01 0.01 84 1019.0
20260830204334 68 146 0.9 1.7 0.00 0.01 0.01 84 1019.0
20260830203848 68 146 0.9 1.7 0.00 0.01 0.01 84 1019.2
20260830203347 68 146 0.0 0.9 0.00 0.01 0.01 84 1019.2
20260830202902 68 146 0.0 1.7 0.00 0.01 0.01 84 1019.1
20260830202334 68 146 0.9 1.7 0.00 0.01 0.01 83 1019.2
20260830201848 68 168 0.0 1.7 0.00 0.01 0.01 83 1019.3
20260830201343 68 168 0.9 1.7 0.00 0.01 0.01 82 1019.3
20260830200836 68 168 0.0 1.7 0.00 0.01 0.01 82 1019.3
20260830200333 68 168 0.0 1.7 0.00 0.01 0.01 82 1019.3
20260830195840 69 242 1.7 1.7 0.00 0.01 0.01 82 1019.3
20260830195336 69 195 0.0 1.7 0.00 0.01 0.01 83 1019.4
20260830194850 68 195 0.9 1.7 0.00 0.01 0.01 83 1019.4
20260830194405 68 196 0.0 2.6 0.00 0.01 0.01 83 1019.4
20260830193837 68 196 1.7 4.3 0.00 0.01 0.01 84 1019.4
20260830193411 68 231 2.6 5.2 0.00 0.01 0.01 83 1019.4
20260830192844 68 229 1.7 5.2 0.00 0.01 0.01 83 1019.4
20260830192340 68 181 0.9 2.6 0.01 0.01 0.01 84 1019.3
20260830191835 68 260 0.9 2.6 0.01 0.01 0.01 84 1019.3
20260830191350 68 311 0.9 2.6 0.01 0.01 0.01 85 1019.4
20260830190843 67 10 0.0 2.6 0.01 0.01 0.01 85 1019.6
20260830190359 67 5 0.9 2.6 0.01 0.01 0.01 85 1019.6
20260830185845 67 248 1.7 3.5 0.01 0.01 0.01 86 1019.7
20260830185340 67 219 0.0 4.3 0.01 0.01 0.01 88 1019.7
20260830184835 67 207 0.9 2.6 0.01 0.01 0.01 88 1019.7
20260830184348 67 234 1.7 2.6 0.01 0.01 0.01 87 1019.8
20260830183903 67 234 0.9 2.6 0.01 0.01 0.01 87 1019.9
20260830183337 67 239 0.9 3.5 0.01 0.01 0.01 87 1020.2
20260830182835 67 232 0.9 3.5 0.01 0.01 0.01 87 1020.2
20260830182351 67 263 0.0 1.7 0.00 0.00 0.00 87 1020.2
20260830181844 67 263 0.0 1.7 0.00 0.00 0.00 86 1020.1
20260830181339 67 263 0.0 1.7 0.00 0.00 0.00 86 1020.2
20260830180852 67 273 0.0 4.3 0.00 0.00 0.00 86 1020.1
20260830180347 67 273 1.7 4.3 0.00 0.00 0.00 86 1020.1
20260830175833 67 223 0.9 3.5 0.00 0.00 0.00 86 1020.1
20260830175348 67 179 0.0 1.7 0.00 0.00 0.00 87 1020.1
20260830174841 67 179 0.9 2.6 0.00 0.00 0.00 87 1020.1
20260830174333 67 179 1.7 3.5 0.00 0.00 0.00 87 1020.1
20260830173849 68 179 1.7 3.5 0.00 0.00 0.00 87 1020.1
20260830173344 68 52 0.9 3.5 0.00 0.00 0.00 88 1020.1
20260830172858 67 204 0.0 2.6 0.00 0.00 0.00 88 1020.0
20260830172332 67 204 0.0 2.6 0.00 0.00 0.00 88 1020.1
20260830171847 67 204 0.9 3.5 0.00 0.00 0.00 88 1020.0
20260830171343 67 204 1.7 3.5 0.00 0.00 0.00 88 1020.0
20260830170837 67 261 0.0 5.2 0.00 0.00 0.00 88 1020.1
20260830170333 67 229 1.7 5.2 0.00 0.00 0.00 88 1019.9
20260830165839 67 214 0.9 3.5 0.00 0.00 0.00 88 1019.8
20260830165334 67 250 0.9 3.5 0.00 0.00 0.00 89 1019.8
20260830164833 67 235 1.7 3.5 0.00 0.00 0.00 89 1019.9
20260830164346 66 271 0.9 2.6 0.00 0.00 0.00 87 1020.0
20260830163841 66 217 0.0 2.6 0.00 0.00 0.00 87 1020.1
20260830163335 66 217 0.9 2.6 0.00 0.00 0.00 87 1020.1
20260830162850 66 217 0.9 1.7 0.00 0.00 0.00 86 1020.2
20260830162345 66 217 0.0 1.7 0.00 0.00 0.00 86 1020.2
20260830161838 67 217 0.0 0.9 0.00 0.00 0.00 86 1020.3
20260830161352 67 217 0.0 2.6 0.00 0.00 0.00 86 1020.2
20260830160907 67 217 0.9 4.3 0.00 0.00 0.00 86 1020.3
20260830160401 67 207 1.7 4.3 0.00 0.00 0.00 86 1020.2
20260830155847 67 178 0.9 3.5 0.00 0.00 0.00 86 1020.3
20260830155343 67 231 0.9 3.5 0.00 0.00 0.00 86 1020.2
20260830154858 67 229 1.7 3.5 0.00 0.00 0.00 87 1020.3
20260830154352 66 215 0.0 2.6 0.00 0.00 0.00 86 1020.3
20260830153845 66 216 0.9 3.5 0.00 0.00 0.00 86 1020.3
20260830153339 66 220 0.9 3.5 0.00 0.00 0.00 85 1020.3
20260830152833 66 205 1.7 6.1 0.00 0.00 0.00 84 1020.5
20260830152409 66 252 1.7 6.1 0.00 0.00 0.00 84 1020.5
20260830151842 66 219 1.7 3.5 0.00 0.00 0.00 84 1020.5
20260830151336 66 188 0.9 2.6 0.00 0.00 0.00 83 1020.5
20260830150850 66 198 0.9 2.6 0.00 0.00 0.00 84 1020.4
20260830150345 66 198 0.9 7.8 0.00 0.00 0.00 83 1020.3
20260830145852 66 246 2.6 8.7 0.00 0.00 0.00 84 1020.2
20260830145347 66 234 0.9 2.6 0.00 0.00 0.00 84 1020.1
20260830144841 66 235 1.7 2.6 0.00 0.00 0.00 84 1019.8
20260830144335 66 235 0.9 2.6 0.00 0.00 0.00 84 1019.9
20260830143833 66 236 0.0 1.7 0.00 0.00 0.00 84 1019.7
20260830143347 66 248 0.9 1.7 0.00 0.00 0.00 84 1019.8
20260830142841 66 248 0.0 0.9 0.00 0.00 0.00 84 1019.7
20260830142356 66 248 0.0 0.9 0.00 0.00 0.00 84 1019.7
20260830141849 66 248 0.0 1.7 0.00 0.00 0.00 84 1019.6
20260830141344 66 248 0.9 2.6 0.00 0.00 0.00 84 1019.6
20260830140839 66 248 1.7 3.5 0.00 0.00 0.00 84 1019.6
20260830140335 66 227 1.7 3.5 0.00 0.00 0.00 84 1019.6
20260830135842 66 229 0.0 2.6 0.00 0.00 0.00 84 1019.7
20260830135334 66 229 1.7 2.6 0.00 0.00 0.00 83 1019.6
20260830134849 66 215 0.9 3.5 0.00 0.00 0.00 83 1019.5
20260830134345 66 225 0.9 3.5 0.00 0.00 0.00 83 1019.5
20260830133840 66 173 0.9 2.6 0.00 0.00 0.00 83 1019.5
20260830133356 66 172 0.9 2.6 0.00 0.00 0.00 83 1019.6
20260830132851 66 172 0.9 2.6 0.00 0.00 0.00 83 1019.4
20260830132345 66 169 0.9 2.6 0.00 0.00 0.00 83 1019.4
20260830131839 66 169 0.0 2.6 0.00 0.00 0.00 82 1019.4
20260830131333 66 169 0.9 2.6 0.00 0.00 0.00 82 1019.5
20260830130848 66 169 1.7 3.5 0.00 0.00 0.00 81 1019.6
20260830130342 67 168 0.0 0.9 0.00 0.00 0.00 82 1019.5
20260830125849 67 168 0.0 0.9 0.00 0.00 0.00 81 1019.4
20260830125344 67 168 0.0 0.9 0.00 0.00 0.00 80 1019.3
20260830124841 67 168 0.0 1.7 0.00 0.00 0.00 81 1019.3
20260830124335 67 168 0.0 3.5 0.00 0.00 0.00 80 1019.3
20260830123910 66 192 0.9 3.5 0.00 0.00 0.00 81 1019.2
20260830123343 66 139 0.0 1.7 0.00 0.00 0.00 82 1019.3
20260830122838 66 139 0.0 1.7 0.00 0.00 0.00 81 1019.2
20260830122352 66 139 0.9 1.7 0.00 0.00 0.00 81 1019.3
20260830121845 66 139 0.9 1.7 0.00 0.00 0.00 81 1019.3
20260830121400 66 200 0.9 2.6 0.00 0.00 0.00 81 1019.3
20260830120833 65 198 0.9 2.6 0.00 0.00 0.00 81 1019.3
20260830120348 65 217 0.9 1.7 0.00 0.00 0.00 81 1019.3
20260830115834 65 251 0.0 3.5 0.00 0.00 0.00 81 1019.3
20260830115408 65 251 0.9 3.5 0.00 0.00 0.00 81 1019.3
20260830114903 65 170 0.0 0.0 0.00 0.00 0.00 81 1019.3
20260830114338 64 170 0.0 1.7 0.00 0.00 0.00 81 1019.3
20260830113852 64 170 0.0 1.7 0.00 0.00 0.00 81 1019.4
20260830113407 64 170 0.0 1.7 0.00 0.00 0.00 81 1019.3
20260830112841 64 170 0.9 1.7 0.00 0.00 0.00 81 1019.3
20260830112336 64 170 0.9 1.7 0.00 0.00 0.00 81 1019.5
20260830111849 64 170 0.9 1.7 0.00 0.00 0.00 81 1019.5
20260830111344 64 205 0.0 2.6 0.00 0.00 0.00 81 1019.6
20260830110838 64 205 0.9 2.6 0.00 0.00 0.00 81 1019.7
20260830110334 64 200 0.9 1.7 0.00 0.00 0.00 81 1019.7
20260830105839 64 200 0.0 2.6 0.00 0.00 0.00 80 1019.7
20260830105352 64 200 0.9 2.6 0.00 0.00 0.00 81 1019.6
20260830104847 64 132 0.0 2.6 0.00 0.00 0.00 81 1019.5
20260830104341 64 132 0.0 2.6 0.00 0.00 0.00 81 1019.5